Location: ?????? ??????
(44.3742°N, 135.2221°E)
Time: 04:34:09
(UTC+00:00)

Meteor 1-14 Rocket - Pass Details

Date: 19 May 2025
Orbit: 833 x 917 km, 81.3° (Epoch: 19 June)

Event Time Altitude Azimuth Distance (km) Brightness Sun altitude
Rises 12:41:07 0° 352° (N) 3,409 8.5 -18.8°
Reaches altitude 10° 12:43:33 10° 356° (N) 2,478 7.5 -19.0°
Maximum altitude 12:49:07 61° 77° (ENE) 970 4.4 -19.5°
Enters shadow 12:51:17 37° 141° (SE) 1,322 4.7 -19.7°
